カタログに戻る

FENGYUN 1C DEB

運用中SSO
NORAD 32130·DEBRIS·🇨🇳 China

打ち上げ May 10, 1999 から Taiyuan Satellite Launch Center

Loading…

次のパス (今後24時間)

TLE

最新Source: Space-Track

元期: Sep 14, 2026, 06:01 UTC

1 32130U 99025CRY 26257.25130612  .00000742  00000-0  25089-3 0  9996
2 32130  98.9223  79.0468 0081123 236.8713 122.4670 14.38218715  1871

AllMySatでFENGYUN 1C DEBをリアルタイム追跡

Download on the App Store